Regional Weather Roundup
Issued by NWS

Home | Current Version | Previous Version | Text Only | Print | Product List | Glossary On
Versions: 1 2 3 4 5 6 7 8 9 10 11 12 13 14 15 16 17 18 19 20 21 22 23 24 25 26 27 28 29 30 31 32 33 34 35 36 37 38 39 40 41 42 43 44 45 46 47 48
000
ASUS42 KTBW 040316
RWRFL
FLORIDA REGIONAL WEATHER ROUNDUP
NATIONAL WEATHER SERVICE TAMPA BAY RUSKIN FL
1100 PM EDT THU SEP 03 2015

NOTE: "FAIR" INDICATES FEW OR NO CLOUDS BELOW 12,000 FEET WITH NO
SIGNIFICANT WEATHER AND/OR OBSTRUCTIONS TO VISIBILITY.


FLZ001>010-012>015-112-114-115-040400-
PANHANDLE FLORIDA

CITY           SKY/WX    TMP DP  RH WIND       PRES   REMARKS
PENSACOLA      CLEAR     80  73  79 W7        29.95R
PENSACOLA NAS  PTCLDY    75  73  93 W3        29.95R
MILTON NAS     PTCLDY    73  71  93 CALM      29.96
CRESTVIEW      CLEAR     72  72 100 CALM      29.97R FOG
DUKE FIELD     PTCLDY    73  71  93 CALM      29.96R
VALPARAISO     PTCLDY    78  71  81 VRB2      29.95R
MARY ESTHER    CLEAR     81  74  77 W5        29.94R
PANAMA CITY    FAIR      76  71  85 S3        29.93S
TYNDALL AFB    MOCLDY    80  76  87 NW3       29.94S
APALACHICOLA   MOCLDY    76  75  97 CALM      29.95R

STATION/POSITION SKY/WX   TEMP    WIND        PRES    WAVE   SWELL
                          AIR SEA DIR/SP/G            HT/PER HT/PER
                          (F)     (DEG/KT/KT) (MB)    (FT/S) (FT/S)
30.1N   87.6W              83 86  280/  6/  8 1013.7R   1/ 4   2/ 6
29.2N   88.2W              81 84  210/  4/  4 1014.5R   1/ 5   2/ 5
28.8N   86.0W              82 86  290/  2/  4 1014.9R   1/ 5   2/ 5
PANAMA CITY BEAC           81 85  320/  6/  8 1013.6R
CAPE SAN BLAS    NOT AVBL
TOWER C                    83     330/  7/  8 1014.3R
28.5N   84.5W              84 86  280/  4/  6 1014.6R   1/ 3   2/ 6

$$
FLZ011-016>038-118-127-128-134-139-239-040400-
NORTH FLORIDA

CITY           SKY/WX    TMP DP  RH WIND       PRES   REMARKS
MARIANNA       PTCLDY    73  72  96 SW3       29.95R
TALLAHASSEE    CLOUDY    76  72  87 CALM      29.96R
PERRY          CLOUDY    78  75  91 CALM      29.96R
CROSS CITY       N/A     81  78  91 CALM      29.95R
LAKE CITY      FAIR      79  75  89 CALM      29.95R
GAINESVILLE    CLOUDY    78  74  87 CALM      29.95R
MAYPORT NAS    CLOUDY    81  77  88 SW3       29.94R
JACKSONVILLE   CLOUDY    80  78  94 CALM      29.93R
JAX NAS        CLOUDY    86  76  71 S8        29.95R HX  96
JAX CRAIG      CLOUDY    81  77  88 CALM      29.94R
JAX CECIL      CLEAR     79  77  94 S3        29.95R
FERNANDINA BEA FAIR      82  77  83 CALM      29.92S
ST AUGUSTINE   CLOUDY    80  77  90 CALM      29.95R

STATION/POSITION SKY/WX   TEMP    WIND        PRES    WAVE   SWELL
                          AIR SEA DIR/SP/G            HT/PER HT/PER
                          (F)     (DEG/KT/KT) (MB)    (FT/S) (FT/S)
SHELL POINT                77     330/  4/  5   N/A
KEATON BEACH               79      30/  3/  3 1014.3R
CEDAR KEY                  85     290/  4/  5 1014.7R
FERNANDINA                 82 86   80/  2/  2 1012.7R
30.7N   81.3W                 85                N/A     1/ 3
MAYPORT                    82 86  180/  1/  2 1013.7R
31.4N   80.9W              81 84  120/  2/  4 1013.5R   2/ 4   2/ 8
ST AUGUSTINE               80 84  230/  3/  4 1014.9R

$$
FLZ040-043>046-052-053-057-058-063-144-040400-
INTERIOR CENTRAL FLORIDA

CITY           SKY/WX    TMP DP  RH WIND       PRES   REMARKS
OCALA          MOCLDY    75  72  88 CALM      29.96R
THE VILLAGES     N/A     79  75  89 CALM      29.86S
LEESBURG       PTCLDY    78  74  87 W3        29.97R
SANFORD        PTCLDY    82  71  69 N3        29.96R
ORLANDO EXEC   PTCLDY    83  74  74 W5        29.96R
ORLANDO INTL   PTCLDY    83  71  67 NW8       29.96R
WINTER HAVEN   CLEAR     81  74  79 CALM      29.97R
LAKELAND       MOCLDY    81  75  83 CALM      29.97S
BARTOW         FAIR      77  77 100 CALM      29.97S
OKEECHOBEE     CLOUDY    79  72  78 CALM      29.96S

$$
FLZ041-047-054-059-064-141-147-040400-
EAST CENTRAL FLORIDA

CITY           SKY/WX    TMP DP  RH WIND       PRES   REMARKS
DAYTONA BEACH  PTCLDY    80  78  94 SW3       29.95R
CAPE CANAVERAL PTCLDY    80  75  84 S2        29.93R
PATRICK AFB    PTCLDY    84  80  86 S6        29.93S HX  97
MELBOURNE      PTCLDY    83  78  85 S3        29.94S
VERO BEACH     MOCLDY    83  75  77 S6        29.95R
FT PIERCE      MOCLDY    80  76  87 S5        29.95R
STUART         PTCLDY    79  70  73 SW6       29.97R

STATION/POSITION SKY/WX   TEMP    WIND        PRES    WAVE   SWELL
                          AIR SEA DIR/SP/G            HT/PER HT/PER
                          (F)     (DEG/KT/KT) (MB)    (FT/S) (FT/S)
28.5N   80.2W              85 88  190/ 10/ 10 1013.9S
28.9N   78.5W              84 86  240/  8/ 10 1013.8R
TRIDENT PIER               83 87  150/  6/  8 1014.2R
28.4N   80.5W                 86                N/A     1/13
27.5N   80.2W                 86                N/A     1/13

$$
FLZ050-056-061-142-242-148-248-149-249-151-251-155-255-
160-260-040400-
WEST CENTRAL FLORIDA

CITY           SKY/WX    TMP DP  RH WIND       PRES   REMARKS
CRYSTAL RIVER  FAIR      79  75  89 CALM      29.96R
INVERNESS      FAIR      77  77 100 CALM      29.96S
BROOKSVILLE    MOCLDY    79  76  90 CALM      29.97R
CLEARWATER     MOCLDY    82  75  79 NW6       29.95S
TAMPA INTL     MOCLDY    83  75  77 NW5       29.96R
TAMPA EXEC     MOCLDY    81  77  89 CALM      29.96S
PLANT CITY     MOCLDY    81  79  94 CALM      29.98S
MACDILL AFB    MOCLDY    81  77  88 N3        29.95R
PETER O KNIGHT MOCLDY    86  77  74 CALM      29.96R HX  97
ST PETERSBURG  MOCLDY    85  75  72 N5        29.94R
SARASOTA       MOCLDY    81  74  79 CALM      29.94S
VENICE         FAIR      84  75  74 N5        29.96S

STATION/POSITION SKY/WX   TEMP    WIND        PRES    WAVE   SWELL
                          AIR SEA DIR/SP/G            HT/PER HT/PER
                          (F)     (DEG/KT/KT) (MB)    (FT/S) (FT/S)
CEDAR KEY                  85     290/  4/  5 1014.7R
28.5N   84.5W              84 86  280/  4/  6 1014.6R   1/ 3   2/ 6
27.3N   84.2W                 87                N/A     1/ 7
CLEARWATER BEACH           85 88  290/  5/  6 1014.4R
MIDDLE TAMPA BAY                  350/  6/  8 1014.3R
VENICE                     85 87  330/  8/  9 1014.0R

$$
FLZ066-069-070-075>078-162-262-165-265-040400-
SOUTHWEST FLORIDA AND KEYS

CITY           SKY/WX    TMP DP  RH WIND       PRES   REMARKS
PUNTA GORDA    PTCLDY    81  77  88 MISG      29.96S
FT MYERS       PTCLDY    80  71  74 CALM      29.95S
SOUTHWEST INTL PTCLDY    79  72  79 CALM      29.96R
NAPLES         PTCLDY    79  71  76 CALM      29.96R
MARCO ISLAND   CLOUDY    77  72  83 E3        29.96R
MARATHON       MOCLDY    85  74  69 CALM      29.97R
KEY WEST NAS   MOCLDY    84  75  74 E3        29.97R
KEY WEST INTL  MOCLDY    85  76  74 CALM      29.98R

STATION/POSITION SKY/WX   TEMP    WIND        PRES    WAVE   SWELL
                          AIR SEA DIR/SP/G            HT/PER HT/PER
                          (F)     (DEG/KT/KT) (MB)    (FT/S) (FT/S)
VENICE                     85 87  330/  8/  9 1014.0R
NAPLES                        87              1015.2F
26.0N   85.6W              85 87  130/  2/  4 1014.6R   1/ 7   2/ 7
DRY TORTUGAS                                    N/A
NW FL BAY                  87     350/  3/  5 1014.6
SAND KEY                   85     120/  5     1015.0R
LONG KEY                   86 90  150/  2/  2 1015.5R
MOLASSES REEF              85 87  180/  3/  5 1014.7F

$$
FLZ067-068-071>074-168-172>174-040400-
SOUTHEAST FLORIDA

CITY           SKY/WX    TMP DP  RH WIND       PRES   REMARKS
W PALM BEACH   PTCLDY    78  70  76 SW5       29.97R
FT LAUDER-EXEC CLOUDY    80  71  74 CALM      29.96S
FT LAUDERDALE  CLOUDY    80  71  74 NW5       29.96S
POMPANO BEACH  MOCLDY    82  70  66 CALM      29.96R
PEMBROKE PINES CLOUDY    81  69  67 CALM      29.98R
OPA LOCKA      CLOUDY    82  69  64 CALM      29.97S
MIAMI          CLOUDY    82  73  74 CALM      29.96S
WEST KENDALL   CLOUDY    78  73  84 CALM      29.96F
HOMESTEAD      CLOUDY    80  74  83 CALM      29.95F

STATION/POSITION SKY/WX   TEMP    WIND        PRES    WAVE   SWELL
                          AIR SEA DIR/SP/G            HT/PER HT/PER
                          (F)     (DEG/KT/KT) (MB)    (FT/S) (FT/S)
PORT EVERGLADES            83     280/  6/  7 1014.5S
VIRGINIA KEY               83 88  250/  3/  3 1014.4R
LAKE WORTH                 81 88  240/  5/  7 1014.0R
FOWEY ROCKS                83 87   CALM  /  1 1014.5F
SETTLEMENT POINT           84     180/  5/  5 1015.3R

$$




USA.gov is the U.S. government's official web portal to all federal, state and local government web resources and services.